When you browse on this site, cookies collect data to enhance your experience and personalize the content and advertising you see.
Visit our Privacy Policy to learn more. By continuing to use the site, you agree to this use of cookies and data.
  • In Slovakia
  • List of Countries
  • For 7 days
  • Water Temperature
  • Satellite Maps
  • Weather Map
  • Weather Widgets
  • user-avatar
    Login

    Hourly Weather Río Gallegos

    Today, 16 January, Wednesday

    Time Temperature Precipitation Wind Pressure Humidity
    00:00 +5°C° 0 mm 12 mps 753 mmHg 64%
    01:00 +4°C° 0 mm 12 mps 753 mmHg 61%
    02:00 +4°C° 0 mm 12 mps 754 mmHg 61%
    03:00 +4°C° 0 mm 11 mps 755 mmHg 61%
    04:00 +4°C° 0 mm 11 mps 756 mmHg 61%
    05:00 +4°C° 0 mm 11 mps 757 mmHg 59%
    06:00 +6°C° 0 mm 11 mps 758 mmHg 57%
    07:00 +6°C° 0 mm 10 mps 758 mmHg 55%
    08:00 +7°C° 0 mm 10 mps 758 mmHg 53%
    09:00 +8°C° 0 mm 10 mps 758 mmHg 51%
    10:00 +9°C° 0 mm 10 mps 759 mmHg 49%
    11:00 +11°C° 0 mm 10 mps 759 mmHg 47%
    12:00 +12°C° 0 mm 10 mps 760 mmHg 45%
    13:00 +13°C° 0 mm 10 mps 760 mmHg 43%
    14:00 +13°C° 0 mm 10 mps 760 mmHg 43%
    15:00 +15°C° 0 mm 9 mps 761 mmHg 42%
    16:00 +15°C° 0 mm 9 mps 761 mmHg 42%
    17:00 +13°C° 0 mm 9 mps 761 mmHg 44%
    18:00 +13°C° 0 mm 9 mps 762 mmHg 46%
    19:00 +12°C° 0 mm 9 mps 762 mmHg 48%
    20:00 +11°C° 0 mm 8 mps 762 mmHg 51%
    21:00 +10°C° 0 mm 7 mps 763 mmHg 54%
    22:00 +9°C° 0 mm 6 mps 763 mmHg 57%
    23:00 +9°C° 0 mm 6 mps 763 mmHg 59%

    Tomorrow, 17 January, Thursday

    Time Temperature Precipitation Wind Pressure Humidity
    00:00 +8°C° 0 mm 6 mps 763 mmHg 61%
    01:00 +8°C° 0 mm 5 mps 763 mmHg 63%
    02:00 +8°C° 0 mm 5 mps 763 mmHg 63%
    03:00 +8°C° 0 mm 5 mps 763 mmHg 63%
    04:00 +8°C° 0 mm 6 mps 763 mmHg 63%
    05:00 +9°C° 0 mm 7 mps 762 mmHg 59%
    06:00 +10°C° 0 mm 8 mps 762 mmHg 55%
    07:00 +10°C° 0 mm 9 mps 762 mmHg 51%
    08:00 +12°C° 0 mm 11 mps 762 mmHg 48%
    09:00 +14°C° 0 mm 13 mps 761 mmHg 45%
    10:00 +17°C° 0 mm 14 mps 761 mmHg 42%
    11:00 +18°C° 0 mm 15 mps 761 mmHg 42%
    12:00 +18°C° 0 mm 15 mps 761 mmHg 41%
    13:00 +18°C° 0 mm 16 mps 761 mmHg 41%
    14:00 +17°C° 0 mm 15 mps 761 mmHg 42%
    15:00 +17°C° 0 mm 15 mps 761 mmHg 44%
    16:00 +17°C° 0 mm 15 mps 761 mmHg 45%
    17:00 +15°C° 0 mm 14 mps 761 mmHg 47%
    18:00 +14°C° 0 mm 13 mps 761 mmHg 49%
    19:00 +13°C° 0 mm 13 mps 761 mmHg 51%
    20:00 +13°C° 0 mm 12 mps 761 mmHg 53%
    21:00 +12°C° 0 mm 11 mps 762 mmHg 56%
    22:00 +11°C° 0 mm 10 mps 762 mmHg 58%
    23:00 +11°C° 0 mm 9 mps 762 mmHg 60%

    Day after tomorrow, 18 January, Friday

    Time Temperature Precipitation Wind Pressure Humidity
    00:00 +11°C° 0 mm 9 mps 761 mmHg 62%
    01:00 +10°C° 0 mm 8 mps 761 mmHg 63%
    02:00 +10°C° 0 mm 7 mps 761 mmHg 64%
    03:00 +10°C° 0 mm 6 mps 761 mmHg 66%
    04:00 +11°C° 0 mm 4 mps 761 mmHg 67%
    05:00 +12°C° 0 mm 5 mps 761 mmHg 63%
    06:00 +13°C° 0 mm 5 mps 761 mmHg 59%
    07:00 +14°C° 0 mm 6 mps 760 mmHg 55%
    08:00 +16°C° 0 mm 6 mps 760 mmHg 49%
    09:00 +17°C° 0 mm 6 mps 760 mmHg 44%
    10:00 +20°C° 0 mm 6 mps 759 mmHg 39%
    11:00 +21°C° 0 mm 6 mps 758 mmHg 37%
    12:00 +22°C° 0 mm 6 mps 758 mmHg 34%
    13:00 +23°C° 0 mm 6 mps 757 mmHg 32%
    14:00 +21°C° 0.1 mm 6 mps 756 mmHg 37%
    15:00 +20°C° 0.1 mm 5 mps 756 mmHg 43%
    16:00 +19°C° 0.1 mm 5 mps 755 mmHg 49%
    17:00 +19°C° 0.1 mm 4 mps 755 mmHg 51%
    18:00 +19°C° 0.1 mm 4 mps 754 mmHg 52%
    19:00 +19°C° 0.1 mm 3 mps 754 mmHg 54%
    20:00 +18°C° 0 mm 4 mps 753 mmHg 57%
    21:00 +17°C° 0 mm 5 mps 753 mmHg 59%
    22:00 +16°C° 0 mm 6 mps 752 mmHg 61%
    23:00 +16°C° 0.4 mm 6 mps 751 mmHg 63%

    19 January, Saturday

    Time Temperature Precipitation Wind Pressure Humidity
    00:00 +16°C° 0.4 mm 5 mps 750 mmHg 65%
    01:00 +17°C° 0.4 mm 4 mps 749 mmHg 67%
    02:00 +17°C° 0.4 mm 4 mps 749 mmHg 67%
    03:00 +17°C° 0.4 mm 4 mps 748 mmHg 67%
    04:00 +15°C° 0.4 mm 4 mps 747 mmHg 68%
    05:00 +17°C° 0.1 mm 4 mps 747 mmHg 66%
    06:00 +17°C° 0.1 mm 4 mps 747 mmHg 64%
    07:00 +18°C° 0.1 mm 4 mps 746 mmHg 62%
    08:00 +19°C° 0 mm 6 mps 746 mmHg 56%
    09:00 +20°C° 0 mm 8 mps 746 mmHg 51%
    10:00 +21°C° 0 mm 10 mps 746 mmHg 45%
    11:00 +19°C° 0 mm 10 mps 746 mmHg 47%
    12:00 +18°C° 0 mm 11 mps 746 mmHg 49%
    13:00 +17°C° 0 mm 11 mps 746 mmHg 51%
    14:00 +17°C° 0 mm 11 mps 747 mmHg 49%
    15:00 +17°C° 0 mm 11 mps 747 mmHg 47%
    16:00 +17°C° 0 mm 11 mps 747 mmHg 45%
    17:00 +16°C° 0 mm 11 mps 748 mmHg 46%
    18:00 +16°C° 0 mm 11 mps 748 mmHg 47%
    19:00 +14°C° 0 mm 10 mps 749 mmHg 48%
    20:00 +13°C° 0 mm 10 mps 749 mmHg 52%
    21:00 +12°C° 0 mm 9 mps 750 mmHg 55%
    22:00 +10°C° 0 mm 9 mps 750 mmHg 58%
    23:00 +10°C° 0 mm 8 mps 750 mmHg 58%

    20 January, Sunday

    Time Temperature Precipitation Wind Pressure Humidity
    00:00 +9°C° 0 mm 7 mps 750 mmHg 59%
    01:00 +8°C° 0 mm 6 mps 750 mmHg 59%
    02:00 +8°C° 0 mm 6 mps 751 mmHg 60%
    03:00 +8°C° 0 mm 6 mps 751 mmHg 61%
    04:00 +7°C° 0 mm 5 mps 751 mmHg 62%
    05:00 +8°C° 0 mm 6 mps 752 mmHg 58%
    06:00 +9°C° 0 mm 7 mps 752 mmHg 54%
    07:00 +9°C° 0 mm 8 mps 752 mmHg 50%
    08:00 +11°C° 0 mm 8 mps 752 mmHg 46%
    09:00 +12°C° 0 mm 8 mps 752 mmHg 42%
    10:00 +13°C° 0 mm 8 mps 752 mmHg 38%
    11:00 +15°C° 0 mm 8 mps 752 mmHg 37%
    12:00 +15°C° 0 mm 7 mps 752 mmHg 35%
    13:00 +16°C° 0 mm 6 mps 752 mmHg 34%
    14:00 +16°C° 0 mm 6 mps 752 mmHg 35%
    15:00 +15°C° 0 mm 5 mps 752 mmHg 37%
    16:00 +15°C° 0 mm 5 mps 752 mmHg 39%
    17:00 +14°C° 0 mm 5 mps 752 mmHg 41%
    18:00 +14°C° 0 mm 5 mps 752 mmHg 42%
    19:00 +13°C° 0 mm 5 mps 753 mmHg 44%
    20:00 +13°C° 0 mm 5 mps 753 mmHg 45%
    21:00 +12°C° 0 mm 4 mps 753 mmHg 46%
    22:00 +12°C° 0 mm 4 mps 753 mmHg 47%
    23:00 +11°C° 0 mm 3 mps 752 mmHg 48%

    21 January, Monday

    Time Temperature Precipitation Wind Pressure Humidity
    00:00 +12°C° 0 mm 2 mps 752 mmHg 49%
    01:00 +11°C° 0 mm 1 mps 752 mmHg 51%
    02:00 +10°C° 0 mm 3 mps 751 mmHg 56%
    03:00 +9°C° 0 mm 5 mps 751 mmHg 62%
    04:00 +9°C° 0 mm 6 mps 750 mmHg 67%
    05:00 +9°C° 0 mm 7 mps 750 mmHg 66%
    06:00 +10°C° 0 mm 8 mps 749 mmHg 65%
    07:00 +10°C° 0 mm 9 mps 748 mmHg 64%
    08:00 +12°C° 0 mm 9 mps 747 mmHg 57%
    09:00 +13°C° 0 mm 9 mps 747 mmHg 50%
    10:00 +16°C° 0 mm 9 mps 746 mmHg 43%
    11:00 +16°C° 0 mm 9 mps 745 mmHg 41%
    12:00 +16°C° 0 mm 8 mps 744 mmHg 38%
    13:00 +16°C° 0 mm 7 mps 744 mmHg 36%
    14:00 +17°C° 0 mm 8 mps 744 mmHg 33%
    15:00 +17°C° 0 mm 10 mps 743 mmHg 30%
    16:00 +17°C° 0 mm 11 mps 743 mmHg 27%
    17:00 +16°C° 0 mm 11 mps 744 mmHg 32%
    18:00 +13°C° 0 mm 11 mps 744 mmHg 37%
    19:00 +12°C° 0 mm 11 mps 745 mmHg 42%
    20:00 +9°C° 0 mm 10 mps 745 mmHg 44%
    21:00 +8°C° 0 mm 9 mps 745 mmHg 47%
    22:00 +7°C° 0 mm 8 mps 746 mmHg 50%
    23:00 +6°C° 0 mm 7 mps 746 mmHg 53%
    Show more